Showing default

GAOFEN 1-02, 43259

Orbit data source: Space-Track

GAOFEN 1-02, 43259 is a payload satellite owned by GGKGJ (CN) in SSO that was launched on Sat, 31 Mar 2018 UTC via a CHANG ZHENG 4C launch vehicle from the Taiyaun Space Center, China (TSC). Payload-class satellites include a variety of spacecraft equipped with specific instruments for various scientific and technological missions. These include communications satellites like Starlink; space stations such as the ISS; scientific satellites like the Hubble; Earth observation satellites from companies like Planet Labs, Umbra, and HawkEye 360; GPS; miniature CubeSats for education and research; and military/defense satellites.

Loading next visibility...
Identifier
43259, 2018-031A
Orbit
SSO
Country
Flag of CNCN / PRC
Related business
Manufacturer
DFH
Mission
Operational Civil Imaging
Bus & Motor
CAST-2000, AOCS
Mass
805 kg wet, ~700 kg dry
Launch date (UTC)
2018-03-31 (8 years ago)
Launch vehicle
CHANG ZHENG 4C
Launch site
Taiyaun Space Center, China (TSC)
Object type
Payload
Rocket body
Debris
Shape & HBR
Box + 2 Pan, 2.0 m
Radar Cross Section
4.991 m², Large (>1 m²)

Expand to show TLE details & history
Last TLE update: 3 hours ago

TLE from 3 hours ago
0 GAOFEN 1-02
1 43259U 18031A   26035.12858102  .00000754  00000-0  11594-3 0  9998
2 43259  98.0719  97.9145 0004219  75.3398 284.8279 14.76411526423067
Epoch: 2026-02-04T03:05Z
TLE epoch observation values (Epoch: 2026-02-04T03:05:09.400Z)
Latitude
Longitude
-82.67427°
Altitude
642.929 km
Speed
7.537 km/s
True Right ascension
06h 31m 39s
True Declination
0° 00' 00"
Sunlit
Object was in full shadow at epoch
Visualization orbit readout
Latitude
Unknown
Longitude
Unknown
Altitude
Unknown
Speed
Unknown
Apparent Right ascension
Unknown
Apparent Declination
Unknown
Sunlit
N/A
Visualization observer readout
Local Sidereal Time
08:09:47
Azimuth
Unknown
Elevation
Unknown
Doppler factor
Unknown
Orbital elements
Apogee altitude
640.688 km
Perigee altitude
634.768 km
Semi-major axis
7,015.865 km
Eccentricity
0.00042
Inclination
98.0719°
RAAN
97.9145°
Arg. of periapsis
75.3398°
True anomaly
284.78116°
Mean anomaly
284.8279°
Eccentric anomaly
284.80453°
Mean motion
3.69336 °/min
Orbital period
97.47 mins
BSTAR
0.00011594
Loading maneuver chart data...
Computing Atmospheric mass density...
Loading historical data...
Loading historical data...
Loading historical data...
Loading historical data...
Loading historical data...
Loading historical data...
Loading historical data...

Documentation

Showing up to 5 results
|